QPF
0.01 0.00 0.00 0.00 0.01 0.00 0.00 0.00 0.01 0.01 0.00 0.00 0.00 0.00 0.00 0.00 0.00 0.00 0.00 0.00 0.00 0.00 0.00 0.01 0.01 0.01 0.01 0.01 0.02 0.02 0.02 0.03 0.03 0.03 0.04 0.05 0.06 0.07
0.01 0.01 0.00 0.00 0.00 0.00 0.00 0.00 0.00 0.01 0.01 0.00 0.00 0.00 0.00 0.00 0.00 0.00 0.00 0.00 0.00 0.00 0.00 0.00 0.00 0.01 0.01 0.01 0.01 0.02 0.02 0.02 0.02 0.03 0.03 0.05 0.06 0.07
0.02 0.01 0.01 0.00 0.00 0.00 0.00 0.00 0.00 0.00 0.00 0.00 0.00 0.00 0.00 0.00 0.00 0.00 0.00 0.00 0.00 0.00 0.00 0.01 0.01 0.01 0.01 0.01 0.01 0.01 0.01 0.02 0.02 0.03 0.04 0.05 0.07 0.07
0.03 0.02 0.01 0.00 0.00 0.00 0.00 0.00 0.00 0.00 0.00 0.00 0.00 0.00 0.00 0.00 0.00 0.00 0.00 0.00 0.00 0.00 0.00 0.01 0.00 0.00 0.01 0.01 0.01 0.01 0.01 0.02 0.02 0.03 0.03 0.05 0.06 0.06
0.04 0.03 0.01 0.01 0.01 0.00 0.00 0.00 0.00 0.01 0.01 0.00 0.00 0.00 0.00 0.00 0.00 0.00 0.00 0.00 0.00 0.00 0.00 0.00 0.00 0.00 0.00 0.01 0.01 0.01 0.01 0.02 0.02 0.03 0.03 0.03 0.03 0.04
0.04 0.03 0.03 0.02 0.01 0.01 0.00 0.00 0.01 0.01 0.01 0.00 0.00 0.00 0.00 0.00 0.00 0.00 0.00 0.00 0.00 0.00 0.00 0.00 0.00 0.00 0.00 0.01 0.01 0.01 0.01 0.01 0.02 0.02 0.02 0.02 0.02 0.03
0.06 0.04 0.03 0.03 0.02 0.01 0.01 0.01 0.01 0.01 0.00 0.00 0.00 0.00 0.00 0.00 0.00 0.00 0.00 0.00 0.00 0.00 0.00 0.00 0.00 0.00 0.00 0.01 0.01 0.01 0.01 0.01 0.02 0.02 0.02 0.02 0.02 0.02
0.06 0.05 0.04 0.03 0.03 0.03 0.02 0.01 0.01 0.01 0.01 0.01 0.01 0.01 0.00 0.00 0.01 0.01 0.01 0.00 0.00 0.00 0.00 0.00 0.00 0.00 0.00 0.00 0.01 0.01 0.01 0.01 0.02 0.02 0.02 0.02 0.02 0.02
0.03 0.04 0.04 0.04 0.03 0.03 0.02 0.01 0.01 0.00 0.01 0.01 0.01 0.01 0.01 0.01 0.01 0.01 0.01 0.01 0.01 0.00 0.00 0.00 0.00 0.00 0.00 0.00 0.01 0.01 0.01 0.01 0.01 0.02 0.02 0.02 0.02 0.03
0.01 0.02 0.03 0.03 0.03 0.02 0.01 0.01 0.00 0.00 0.00 0.00 0.01 0.01 0.01 0.01 0.01 0.01 0.01 0.01 0.00 0.00 0.00 0.00 0.00 0.00 0.00 0.00 0.00 0.01 0.01 0.01 0.02 0.02 0.02 0.02 0.03 0.03
0.01 0.01 0.02 0.02 0.02 0.02 0.01 0.01 0.00 0.00 0.00 0.00 0.01 0.01 0.01 0.00 0.00 0.01 0.01 0.01 0.01 0.00 0.00 0.00 0.00 0.00 0.00 0.00 0.00 0.01 0.01 0.01 0.02 0.02 0.02 0.02 0.03 0.03
0.01 0.01 0.01 0.02 0.01 0.01 0.01 0.01 0.01 0.00 0.00 0.00 0.00 0.00 0.00 0.00 0.00 0.01 0.01 0.02 0.02 0.01 0.00 0.01 0.01 0.01 0.01 0.01 0.01 0.01 0.01 0.01 0.02 0.02 0.02 0.02 0.02 0.02
0.01 0.01 0.01 0.02 0.01 0.01 0.01 0.01 0.01 0.01 0.00 0.00 0.00 0.00 0.00 0.01 0.01 0.01 0.01 0.02 0.03 0.02 0.01 0.03 0.03 0.02 0.03 0.02 0.01 0.01 0.01 0.01 0.02 0.01 0.01 0.02 0.02 0.02
0.00 0.00 0.01 0.01 0.01 0.01 0.01 0.01 0.01 0.00 0.00 0.00 0.00 0.00 0.01 0.01 0.01 0.01 0.01 0.01 0.01 0.01 0.01 0.03 0.04 0.04 0.03 0.02 0.02 0.01 0.01 0.02 0.02 0.01 0.02 0.02 0.02 0.02
0.00 0.00 0.01 0.01 0.01 0.01 0.01 0.01 0.00 0.00 0.00 0.00 0.01 0.01 0.01 0.01 0.01 0.01 0.01 0.00 0.00 0.00 0.01 0.02 0.03 0.03 0.03 0.03 0.02 0.02 0.02 0.02 0.03 0.02 0.02 0.02 0.03 0.02
0.00 0.01 0.01 0.01 0.01 0.01 0.01 0.00 0.00 0.00 0.01 0.01 0.01 0.01 0.01 0.01 0.01 0.01 0.01 0.01 0.01 0.01 0.01 0.01 0.01 0.02 0.03 0.02 0.02 0.02 0.02 0.02 0.03 0.02 0.02 0.02 0.03 0.03
0.00 0.01 0.01 0.01 0.01 0.01 0.01 0.00 0.00 0.00 0.00 0.01 0.01 0.01 0.01 0.01 0.01 0.01 0.01 0.01 0.01 0.01 0.01 0.01 0.01 0.01 0.02 0.02 0.02 0.02 0.01 0.02 0.02 0.02 0.02 0.03 0.03 0.03
0.01 0.01 0.01 0.00 0.00 0.00 0.00 0.00 0.00 0.00 0.01 0.01 0.01 0.01 0.02 0.02 0.01 0.01 0.01 0.01 0.01 0.01 0.01 0.01 0.01 0.02 0.02 0.02 0.02 0.02 0.02 0.01 0.01 0.02 0.02 0.03 0.03 0.03
0.01 0.00 0.00 0.00 0.00 0.00 0.00 0.00 0.01 0.01 0.01 0.01 0.01 0.01 0.02 0.02 0.02 0.02 0.01 0.01 0.01 0.01 0.01 0.01 0.02 0.02 0.03 0.03 0.03 0.03 0.02 0.02 0.02 0.03 0.02 0.02 0.02 0.02
0.01 0.00 0.00 0.00 0.00 0.00 0.00 0.01 0.01 0.01 0.01 0.01 0.01 0.01 0.01 0.02 0.02 0.02 0.02 0.01 0.01 0.01 0.02 0.02 0.02 0.03 0.03 0.03 0.04 0.03 0.02 0.02 0.03 0.03 0.02 0.02 0.01 0.01
0.01 0.01 0.00 0.00 0.00 0.00 0.01 0.01 0.01 0.02 0.01 0.02 0.01 0.02 0.01 0.01 0.01 0.01 0.01 0.02 0.02 0.02 0.02 0.03 0.02 0.02 0.02 0.02 0.03 0.04 0.03 0.03 0.02 0.03 0.02 0.02 0.01 0.01
0.01 0.01 0.00 0.00 0.01 0.01 0.01 0.01 0.01 0.02 0.02 0.02 0.01 0.01 0.01 0.01 0.02 0.02 0.02 0.02 0.02 0.02 0.02 0.02 0.02 0.02 0.02 0.03 0.04 0.04 0.04 0.03 0.03 0.02 0.02 0.03 0.03 0.04
0.01 0.01 0.00 0.01 0.01 0.01 0.01 0.01 0.01 0.01 0.02 0.02 0.02 0.02 0.01 0.02 0.01 0.02 0.02 0.02 0.01 0.01 0.01 0.01 0.02 0.02 0.03 0.04 0.04 0.04 0.04 0.04 0.04 0.03 0.02 0.02 0.03 0.04
MSLP
1023.35 1023.48 1023.56 1023.56 1023.44 1023.19 1022.79 1022.29 1021.71 1021.10 1020.49 1019.91 1019.39 1018.93 1018.50 1018.09 1017.68 1017.23 1016.74 1016.21 1015.64 1015.05 1014.46 1013.88 1013.32 1012.78 1012.25 1011.73 1011.20 1010.64 1010.06 1009.45 1008.83 1008.19 1007.55 1006.94 1006.34 1005.77
1022.90 1023.00 1023.07 1023.07 1022.96 1022.72 1022.36 1021.89 1021.34 1020.75 1020.15 1019.58 1019.04 1018.55 1018.09 1017.64 1017.19 1016.72 1016.22 1015.69 1015.14 1014.58 1014.03 1013.49 1012.96 1012.45 1011.95 1011.42 1010.88 1010.29 1009.68 1009.03 1008.37 1007.71 1007.06 1006.43 1005.84 1005.30
1022.39 1022.45 1022.49 1022.47 1022.35 1022.13 1021.79 1021.35 1020.84 1020.28 1019.71 1019.16 1018.63 1018.14 1017.66 1017.20 1016.72 1016.23 1015.72 1015.19 1014.65 1014.11 1013.58 1013.06 1012.56 1012.07 1011.56 1011.03 1010.46 1009.86 1009.21 1008.54 1007.85 1007.17 1006.52 1005.90 1005.33 1004.82
1021.82 1021.85 1021.85 1021.81 1021.68 1021.45 1021.13 1020.72 1020.24 1019.72 1019.20 1018.67 1018.17 1017.69 1017.22 1016.75 1016.26 1015.76 1015.24 1014.70 1014.16 1013.62 1013.09 1012.58 1012.08 1011.58 1011.06 1010.52 1009.93 1009.30 1008.63 1007.94 1007.25 1006.57 1005.92 1005.33 1004.80 1004.32
1021.23 1021.23 1021.20 1021.12 1020.98 1020.74 1020.43 1020.03 1019.59 1019.11 1018.62 1018.14 1017.67 1017.21 1016.76 1016.29 1015.81 1015.30 1014.77 1014.22 1013.66 1013.11 1012.56 1012.03 1011.51 1010.99 1010.44 1009.87 1009.26 1008.61 1007.93 1007.24 1006.55 1005.89 1005.28 1004.72 1004.23 1003.79
1020.62 1020.59 1020.54 1020.44 1020.28 1020.03 1019.72 1019.34 1018.91 1018.47 1018.02 1017.57 1017.14 1016.71 1016.28 1015.83 1015.35 1014.84 1014.30 1013.73 1013.15 1012.56 1011.99 1011.42 1010.86 1010.30 1009.72 1009.12 1008.49 1007.83 1007.15 1006.46 1005.79 1005.16 1004.59 1004.07 1003.62 1003.23
1019.99 1019.96 1019.90 1019.78 1019.60 1019.34 1019.02 1018.65 1018.24 1017.82 1017.40 1016.99 1016.59 1016.19 1015.78 1015.35 1014.88 1014.37 1013.81 1013.23 1012.62 1012.00 1011.39 1010.78 1010.18 1009.57 1008.96 1008.32 1007.67 1007.00 1006.32 1005.65 1005.01 1004.41 1003.87 1003.39 1002.98 1002.61
1019.37 1019.34 1019.27 1019.14 1018.95 1018.68 1018.36 1017.99 1017.59 1017.19 1016.79 1016.41 1016.03 1015.66 1015.28 1014.86 1014.40 1013.88 1013.32 1012.72 1012.09 1011.45 1010.80 1010.15 1009.50 1008.86 1008.21 1007.54 1006.87 1006.19 1005.52 1004.86 1004.24 1003.66 1003.15 1002.70 1002.30 1001.95
1018.74 1018.71 1018.64 1018.51 1018.31 1018.04 1017.72 1017.35 1016.96 1016.58 1016.20 1015.84 1015.48 1015.13 1014.76 1014.35 1013.90 1013.40 1012.83 1012.22 1011.58 1010.91 1010.24 1009.56 1008.88 1008.21 1007.53 1006.84 1006.15 1005.46 1004.79 1004.13 1003.52 1002.95 1002.45 1002.00 1001.61 1001.25
1018.12 1018.09 1018.02 1017.89 1017.70 1017.43 1017.11 1016.75 1016.38 1016.00 1015.64 1015.29 1014.96 1014.61 1014.25 1013.85 1013.41 1012.90 1012.34 1011.73 1011.08 1010.41 1009.72 1009.03 1008.34 1007.64 1006.94 1006.24 1005.53 1004.83 1004.14 1003.48 1002.86 1002.28 1001.77 1001.31 1000.90 1000.52
1017.52 1017.49 1017.42 1017.29 1017.10 1016.84 1016.53 1016.19 1015.84 1015.48 1015.13 1014.79 1014.46 1014.12 1013.76 1013.36 1012.91 1012.41 1011.85 1011.24 1010.59 1009.92 1009.24 1008.54 1007.84 1007.14 1006.43 1005.71 1004.99 1004.27 1003.56 1002.88 1002.23 1001.64 1001.10 1000.62 1000.18 999.78
1016.93 1016.90 1016.83 1016.70 1016.52 1016.29 1016.00 1015.69 1015.35 1015.01 1014.67 1014.34 1014.00 1013.66 1013.28 1012.87 1012.41 1011.89 1011.33 1010.72 1010.08 1009.41 1008.73 1008.04 1007.34 1006.64 1005.92 1005.19 1004.45 1003.71 1002.98 1002.28 1001.61 1000.99 1000.43 999.92 999.46 999.04
1016.38 1016.34 1016.27 1016.15 1015.99 1015.78 1015.53 1015.24 1014.93 1014.61 1014.28 1013.94 1013.59 1013.22 1012.82 1012.38 1011.89 1011.35 1010.77 1010.16 1009.51 1008.85 1008.17 1007.48 1006.79 1006.08 1005.35 1004.61 1003.86 1003.10 1002.35 1001.63 1000.94 1000.30 999.72 999.20 998.73 998.30
1015.87 1015.82 1015.75 1015.65 1015.52 1015.33 1015.11 1014.86 1014.57 1014.27 1013.94 1013.59 1013.22 1012.81 1012.37 1011.88 1011.35 1010.77 1010.16 1009.53 1008.87 1008.20 1007.52 1006.83 1006.13 1005.41 1004.68 1003.93 1003.16 1002.39 1001.62 1000.88 1000.18 999.54 998.96 998.44 997.98 997.56
1015.40 1015.35 1015.30 1015.21 1015.10 1014.95 1014.76 1014.54 1014.27 1013.98 1013.65 1013.28 1012.87 1012.41 1011.91 1011.37 1010.78 1010.15 1009.50 1008.83 1008.15 1007.46 1006.77 1006.07 1005.36 1004.63 1003.89 1003.12 1002.34 1001.56 1000.79 1000.04 999.35 998.71 998.15 997.65 997.22 996.83
1014.99 1014.95 1014.90 1014.83 1014.74 1014.62 1014.46 1014.26 1014.01 1013.72 1013.37 1012.98 1012.52 1012.01 1011.45 1010.84 1010.19 1009.51 1008.81 1008.09 1007.38 1006.67 1005.96 1005.24 1004.52 1003.77 1003.01 1002.23 1001.44 1000.65 999.88 999.15 998.47 997.85 997.31 996.85 996.45 996.09
1014.63 1014.59 1014.55 1014.50 1014.43 1014.33 1014.19 1014.00 1013.76 1013.46 1013.09 1012.66 1012.16 1011.60 1010.98 1010.30 1009.59 1008.85 1008.11 1007.35 1006.61 1005.87 1005.14 1004.40 1003.66 1002.91 1002.13 1001.34 1000.55 999.76 998.99 998.26 997.60 997.01 996.50 996.07 995.70 995.36
1014.32 1014.28 1014.25 1014.21 1014.14 1014.05 1013.91 1013.73 1013.48 1013.17 1012.78 1012.32 1011.78 1011.16 1010.49 1009.76 1009.00 1008.22 1007.43 1006.65 1005.88 1005.13 1004.38 1003.63 1002.88 1002.11 1001.33 1000.54 999.74 998.95 998.19 997.48 996.83 996.26 995.76 995.35 994.99 994.66
1014.03 1014.01 1013.97 1013.92 1013.85 1013.76 1013.62 1013.42 1013.17 1012.84 1012.43 1011.93 1011.35 1010.70 1009.98 1009.22 1008.42 1007.61 1006.80 1006.00 1005.23 1004.46 1003.71 1002.97 1002.22 1001.45 1000.68 999.89 999.09 998.31 997.56 996.85 996.21 995.64 995.15 994.73 994.35 994.01
1013.78 1013.74 1013.69 1013.63 1013.55 1013.43 1013.28 1013.07 1012.79 1012.44 1012.00 1011.48 1010.88 1010.19 1009.45 1008.66 1007.84 1007.02 1006.20 1005.40 1004.62 1003.87 1003.13 1002.40 1001.67 1000.93 1000.18 999.41 998.63 997.87 997.12 996.42 995.78 995.20 994.69 994.24 993.83 993.43
1013.52 1013.47 1013.40 1013.32 1013.21 1013.07 1012.89 1012.65 1012.35 1011.97 1011.51 1010.96 1010.33 1009.62 1008.86 1008.05 1007.22 1006.39 1005.57 1004.78 1004.02 1003.29 1002.58 1001.89 1001.20 1000.50 999.79 999.06 998.32 997.59 996.87 996.18 995.54 994.94 994.40 993.90 993.43 992.98
1013.25 1013.18 1013.08 1012.97 1012.82 1012.65 1012.43 1012.16 1011.83 1011.42 1010.92 1010.35 1009.69 1008.96 1008.17 1007.35 1006.51 1005.67 1004.86 1004.08 1003.34 1002.64 1001.98 1001.33 1000.70 1000.07 999.43 998.77 998.10 997.42 996.74 996.08 995.44 994.83 994.26 993.71 993.19 992.67
1012.95 1012.85 1012.73 1012.57 1012.39 1012.17 1011.91 1011.59 1011.22 1010.77 1010.23 1009.62 1008.93 1008.16 1007.35 1006.50 1005.64 1004.79 1003.97 1003.20 1002.48 1001.82 1001.21 1000.64 1000.09 999.55 999.01 998.45 997.88 997.28 996.68 996.06 995.45 994.85 994.25 993.67 993.10 992.53
Thickness
5550 5548 5546 5544 5541 5539 5537 5534 5531 5531 5532 5530 5526 5525 5522 5520 5518 5516 5513 5510 5508 5505 5502 5499 5496 5493 5490 5488 5485 5483 5481 5479 5478 5478 5478 5478 5478 5479
5543 5541 5538 5536 5534 5532 5529 5527 5524 5521 5520 5520 5517 5515 5513 5511 5508 5506 5503 5500 5497 5494 5491 5488 5485 5483 5480 5477 5475 5473 5471 5469 5468 5468 5467 5467 5468 5469
5535 5533 5531 5529 5527 5524 5522 5519 5515 5513 5511 5511 5508 5506 5504 5501 5499 5496 5493 5489 5486 5483 5481 5478 5475 5473 5470 5468 5465 5463 5461 5459 5458 5457 5457 5458 5459 5460
5528 5525 5523 5521 5519 5517 5514 5511 5508 5505 5503 5502 5500 5497 5494 5491 5489 5486 5483 5479 5476 5473 5471 5468 5466 5463 5461 5458 5456 5454 5452 5450 5449 5448 5449 5450 5451 5452
5521 5518 5516 5514 5511 5509 5506 5504 5501 5498 5495 5493 5491 5487 5484 5481 5479 5477 5474 5470 5467 5464 5461 5459 5457 5454 5451 5449 5447 5445 5443 5442 5441 5441 5441 5442 5443 5444
5513 5511 5509 5507 5504 5502 5500 5497 5494 5490 5487 5484 5481 5478 5475 5472 5468 5467 5466 5462 5458 5456 5452 5450 5447 5444 5441 5440 5438 5437 5435 5434 5434 5434 5435 5435 5435 5436
5505 5503 5501 5500 5498 5495 5493 5490 5487 5483 5479 5475 5472 5470 5467 5463 5459 5456 5453 5452 5450 5447 5444 5441 5438 5436 5433 5431 5430 5429 5428 5428 5428 5428 5428 5428 5429 5430
5497 5495 5494 5492 5491 5488 5486 5483 5480 5475 5471 5467 5464 5461 5457 5453 5450 5446 5443 5442 5442 5439 5434 5433 5430 5427 5425 5424 5423 5423 5423 5422 5422 5421 5421 5422 5422 5423
5490 5488 5486 5485 5483 5480 5478 5475 5471 5467 5464 5460 5456 5452 5449 5445 5441 5439 5435 5431 5429 5426 5423 5424 5422 5419 5419 5417 5417 5417 5417 5417 5416 5415 5415 5416 5416 5417
5483 5481 5479 5477 5474 5473 5470 5466 5462 5459 5456 5453 5449 5445 5441 5437 5433 5430 5427 5424 5422 5418 5414 5413 5413 5412 5413 5412 5411 5412 5411 5411 5410 5409 5409 5409 5410 5410
5474 5473 5472 5469 5467 5466 5463 5459 5455 5452 5448 5445 5441 5438 5434 5431 5427 5424 5421 5417 5416 5413 5408 5405 5406 5406 5408 5408 5408 5406 5405 5404 5403 5403 5403 5403 5404 5405
5466 5465 5464 5462 5460 5457 5454 5451 5448 5445 5441 5438 5434 5430 5426 5423 5420 5417 5412 5409 5406 5405 5403 5399 5398 5397 5402 5404 5402 5401 5400 5399 5398 5398 5398 5398 5399 5399
5458 5457 5455 5454 5452 5450 5447 5444 5441 5437 5433 5430 5426 5423 5419 5417 5414 5410 5406 5402 5400 5398 5397 5394 5393 5391 5390 5394 5397 5397 5395 5394 5394 5394 5393 5394 5394 5394
5451 5449 5448 5447 5445 5442 5439 5436 5432 5429 5424 5421 5418 5415 5412 5410 5407 5405 5402 5399 5396 5394 5393 5390 5388 5386 5385 5388 5390 5393 5392 5390 5389 5389 5389 5390 5389 5389
5444 5442 5440 5439 5436 5433 5431 5427 5423 5419 5416 5413 5410 5408 5406 5403 5401 5400 5398 5396 5394 5392 5390 5388 5385 5383 5381 5381 5384 5385 5386 5388 5386 5385 5385 5385 5385 5385
5435 5433 5432 5429 5426 5424 5421 5417 5414 5411 5408 5406 5403 5401 5400 5398 5397 5395 5393 5392 5391 5390 5388 5385 5383 5381 5380 5380 5380 5381 5381 5381 5382 5382 5381 5382 5382 5382
5426 5424 5422 5419 5417 5414 5411 5409 5406 5404 5401 5399 5397 5396 5395 5394 5392 5390 5388 5387 5385 5384 5384 5384 5383 5382 5380 5378 5378 5379 5379 5379 5379 5378 5378 5379 5380 5380
5419 5416 5413 5411 5409 5406 5404 5402 5399 5397 5395 5393 5392 5391 5390 5389 5388 5386 5384 5382 5381 5380 5379 5379 5380 5381 5380 5379 5377 5377 5377 5376 5376 5376 5375 5375 5378 5379
5409 5407 5405 5403 5401 5399 5397 5395 5393 5392 5390 5389 5387 5386 5385 5384 5383 5382 5380 5379 5377 5376 5376 5375 5375 5375 5376 5375 5376 5375 5374 5374 5374 5374 5373 5372 5373 5377
5401 5399 5398 5396 5394 5392 5390 5389 5388 5387 5385 5385 5383 5382 5381 5380 5378 5377 5376 5374 5374 5373 5373 5372 5371 5370 5369 5369 5370 5372 5372 5371 5371 5372 5373 5373 5374 5377
5392 5391 5390 5389 5387 5386 5384 5384 5383 5382 5381 5380 5380 5378 5377 5376 5374 5373 5372 5372 5371 5370 5370 5369 5367 5367 5367 5367 5368 5370 5371 5371 5370 5369 5371 5373 5375 5377
5385 5384 5383 5382 5381 5380 5379 5379 5378 5378 5377 5377 5376 5375 5373 5372 5371 5370 5369 5369 5368 5367 5366 5365 5366 5366 5365 5365 5366 5367 5369 5371 5371 5371 5371 5372 5371 5372
5378 5378 5377 5376 5375 5375 5375 5374 5374 5374 5373 5373 5372 5371 5370 5369 5368 5367 5366 5366 5366 5364 5364 5363 5364 5364 5363 5363 5363 5365 5366 5368 5369 5371 5372 5373 5373 5373